| time (UTC) | temp F | wind direction | speed MPH | gust MPH | rain 1hr in | rain 24hr in | rain mn in | humidity % | barometer mb |
| 20260906161948 | 79 | 0 | 0.0 | 0.0 | 0.00 | 0.00 | 0.00 | 28 | 967.0 |
| 20260906161347 | 79 | 0 | 0.0 | 0.0 | 0.00 | 0.00 | 0.00 | 29 | 967.0 |
| 20260906160747 | 79 | 0 | 0.0 | 0.0 | 0.00 | 0.00 | 0.00 | 27 | 967.0 |
| 20260906160146 | 79 | 0 | 0.0 | 0.0 | 0.00 | 0.00 | 0.00 | 27 | 967.0 |
| 20260906155545 | 79 | 0 | 0.0 | 0.0 | 0.00 | 0.00 | 0.00 | 27 | 967.0 |
| 20260906154944 | 80 | 0 | 0.0 | 0.0 | 0.00 | 0.00 | 0.00 | 25 | 967.0 |
| 20260906154343 | 79 | 0 | 0.0 | 0.0 | 0.00 | 0.00 | 0.00 | 24 | 967.0 |
| 20260906153743 | 80 | 0 | 0.0 | 0.0 | 0.00 | 0.00 | 0.00 | 24 | 967.0 |
| 20260906153142 | 80 | 0 | 0.0 | 0.0 | 0.00 | 0.00 | 0.00 | 24 | 967.0 |
| 20260906152541 | 80 | 0 | 0.0 | 0.0 | 0.00 | 0.00 | 0.00 | 25 | 967.0 |
| 20260906151340 | 81 | 0 | 0.0 | 0.0 | 0.00 | 0.00 | 0.00 | 23 | 967.0 |
| 20260906150739 | 81 | 0 | 0.0 | 0.0 | 0.00 | 0.00 | 0.00 | 22 | 967.0 |
| 20260906150138 | 83 | 0 | 0.0 | 0.0 | 0.00 | 0.00 | 0.00 | 22 | 967.0 |
| 20260906145537 | 83 | 0 | 0.0 | 0.0 | 0.00 | 0.00 | 0.00 | 22 | 967.0 |
| 20260906144937 | 84 | 0 | 0.0 | 0.0 | 0.00 | 0.00 | 0.00 | 22 | 967.0 |
| 20260906144335 | 85 | 0 | 0.0 | 0.0 | 0.00 | 0.00 | 0.00 | 21 | 967.0 |
| 20260906143735 | 87 | 0 | 0.0 | 0.0 | 0.00 | 0.00 | 0.00 | 21 | 967.0 |
| 20260906143134 | 89 | 0 | 0.0 | 0.0 | 0.00 | 0.00 | 0.00 | 19 | 967.0 |
| 20260906142533 | 91 | 0 | 0.0 | 0.0 | 0.00 | 0.00 | 0.00 | 18 | 967.0 |
| 20260906141932 | 95 | 0 | 0.0 | 0.0 | 0.00 | 0.00 | 0.00 | 16 | 967.0 |
| 20260906141331 | 101 | 0 | 0.0 | 0.0 | 0.00 | 0.00 | 0.00 | 13 | 967.0 |
| 20260906140731 | 115 | 0 | 0.0 | 0.0 | 0.00 | 0.00 | 0.00 | 968.0 | |
| 20260906140130 | 117 | 0 | 0.0 | 0.0 | 0.00 | 0.00 | 0.00 | 968.0 | |
| 20260906135529 | 119 | 0 | 0.0 | 0.0 | 0.00 | 0.00 | 0.00 | 968.0 | |
| 20260906134928 | 121 | 0 | 0.0 | 0.0 | 0.00 | 0.00 | 0.00 | 968.0 | |
| 20260906134327 | 122 | 0 | 0.0 | 0.0 | 0.00 | 0.00 | 0.00 | 968.0 | |
| 20260906133726 | 119 | 0 | 0.0 | 0.0 | 0.00 | 0.00 | 0.00 | 968.0 | |
| 20260906133125 | 121 | 0 | 0.0 | 0.0 | 0.00 | 0.00 | 0.00 | 968.0 | |
| 20260906132525 | 120 | 0 | 0.0 | 0.0 | 0.00 | 0.00 | 0.00 | 968.0 | |
| 20260906131924 | 121 | 0 | 0.0 | 0.0 | 0.00 | 0.00 | 0.00 | 968.0 | |
| 20260906131323 | 118 | 0 | 0.0 | 0.0 | 0.00 | 0.00 | 0.00 | 968.0 | |
| 20260906130722 | 120 | 0 | 0.0 | 0.0 | 0.00 | 0.00 | 0.00 | 968.0 | |
| 20260906130121 | 117 | 0 | 0.0 | 0.0 | 0.00 | 0.00 | 0.00 | 968.0 | |
| 20260906125520 | 115 | 0 | 0.0 | 0.0 | 0.00 | 0.00 | 0.00 | 968.0 | |
| 20260906124920 | 108 | 0 | 0.0 | 0.0 | 0.00 | 0.00 | 0.00 | 12 | 968.0 |
| 20260906124319 | 109 | 0 | 0.0 | 0.0 | 0.00 | 0.00 | 0.00 | 13 | 968.0 |
| 20260906123718 | 100 | 0 | 0.0 | 0.0 | 0.00 | 0.00 | 0.00 | 17 | 968.0 |
| 20260906123117 | 83 | 0 | 0.0 | 0.0 | 0.00 | 0.00 | 0.00 | 29 | 968.0 |
| 20260906122516 | 82 | 0 | 0.0 | 0.0 | 0.00 | 0.00 | 0.00 | 31 | 968.0 |
| 20260906121916 | 81 | 0 | 0.0 | 0.0 | 0.00 | 0.00 | 0.00 | 33 | 968.0 |
| 20260906121315 | 80 | 0 | 0.0 | 0.0 | 0.00 | 0.00 | 0.00 | 35 | 968.0 |
| 20260906120714 | 79 | 0 | 0.0 | 0.0 | 0.00 | 0.00 | 0.00 | 37 | 968.0 |
| 20260906120113 | 79 | 0 | 0.0 | 0.0 | 0.00 | 0.00 | 0.00 | 36 | 968.0 |
| 20260906115512 | 78 | 0 | 0.0 | 0.0 | 0.00 | 0.00 | 0.00 | 38 | 968.0 |
| 20260906114912 | 77 | 0 | 0.0 | 0.0 | 0.00 | 0.00 | 0.00 | 38 | 969.0 |
| 20260906114311 | 77 | 0 | 0.0 | 0.0 | 0.00 | 0.00 | 0.00 | 39 | 969.0 |
| 20260906113341 | 76 | 0 | 0.0 | 0.0 | 0.00 | 0.00 | 0.00 | 40 | 969.0 |
| 20260906113109 | 76 | 0 | 0.0 | 0.0 | 0.00 | 0.00 | 0.00 | 40 | 969.0 |
| 20260906112508 | 76 | 0 | 0.0 | 0.0 | 0.00 | 0.00 | 0.00 | 40 | 969.0 |
| 20260906111908 | 75 | 0 | 0.0 | 0.0 | 0.00 | 0.00 | 0.00 | 41 | 969.0 |
| 20260906111307 | 75 | 0 | 0.0 | 0.0 | 0.00 | 0.00 | 0.00 | 41 | 969.0 |
| 20260906110706 | 74 | 0 | 0.0 | 0.0 | 0.00 | 0.00 | 0.00 | 42 | 969.0 |
| 20260906110105 | 74 | 0 | 0.0 | 0.0 | 0.00 | 0.00 | 0.00 | 42 | 969.0 |
| 20260906105504 | 73 | 0 | 0.0 | 0.0 | 0.00 | 0.00 | 0.00 | 42 | 969.0 |
| 20260906104904 | 73 | 0 | 0.0 | 0.0 | 0.00 | 0.00 | 0.00 | 42 | 969.0 |
| 20260906104303 | 73 | 0 | 0.0 | 0.0 | 0.00 | 0.00 | 0.00 | 43 | 969.0 |
| 20260906103702 | 72 | 0 | 0.0 | 0.0 | 0.00 | 0.00 | 0.00 | 44 | 969.0 |
| 20260906103101 | 72 | 0 | 0.0 | 0.0 | 0.00 | 0.00 | 0.00 | 44 | 969.0 |
| 20260906102501 | 71 | 0 | 0.0 | 0.0 | 0.00 | 0.00 | 0.00 | 45 | 969.0 |
| 20260906101900 | 72 | 0 | 0.0 | 0.0 | 0.00 | 0.00 | 0.00 | 45 | 969.0 |
| 20260906101259 | 72 | 0 | 0.0 | 0.0 | 0.00 | 0.00 | 0.00 | 44 | 969.0 |
| 20260906100658 | 71 | 0 | 0.0 | 0.0 | 0.00 | 0.00 | 0.00 | 46 | 969.0 |
| 20260906100057 | 71 | 0 | 0.0 | 0.0 | 0.00 | 0.00 | 0.00 | 45 | 970.0 |
| 20260906095457 | 71 | 0 | 0.0 | 0.0 | 0.00 | 0.00 | 0.00 | 46 | 970.0 |
| 20260906094856 | 71 | 0 | 0.0 | 0.0 | 0.00 | 0.00 | 0.00 | 45 | 970.0 |
| 20260906094255 | 71 | 0 | 0.0 | 0.0 | 0.00 | 0.00 | 0.00 | 47 | 970.0 |
| 20260906093654 | 70 | 0 | 0.0 | 0.0 | 0.00 | 0.00 | 0.00 | 47 | 970.0 |
| 20260906093054 | 70 | 0 | 0.0 | 0.0 | 0.00 | 0.00 | 0.00 | 47 | 970.0 |
| 20260906092453 | 70 | 0 | 0.0 | 0.0 | 0.00 | 0.00 | 0.00 | 48 | 970.0 |
| 20260906091852 | 70 | 0 | 0.0 | 0.0 | 0.00 | 0.00 | 0.00 | 47 | 970.0 |
| 20260906091251 | 69 | 0 | 0.0 | 0.0 | 0.00 | 0.00 | 0.00 | 49 | 970.0 |
| 20260906090650 | 69 | 0 | 0.0 | 0.0 | 0.00 | 0.00 | 0.00 | 48 | 970.0 |
| 20260906090050 | 69 | 0 | 0.0 | 0.0 | 0.00 | 0.00 | 0.00 | 50 | 970.0 |
| 20260906085449 | 69 | 0 | 0.0 | 0.0 | 0.00 | 0.00 | 0.00 | 50 | 970.0 |
| 20260906084848 | 69 | 0 | 0.0 | 0.0 | 0.00 | 0.00 | 0.00 | 50 | 970.0 |
| 20260906084247 | 68 | 0 | 0.0 | 0.0 | 0.00 | 0.00 | 0.00 | 50 | 970.0 |
| 20260906083646 | 68 | 0 | 0.0 | 0.0 | 0.00 | 0.00 | 0.00 | 52 | 970.0 |
| 20260906083046 | 68 | 0 | 0.0 | 0.0 | 0.00 | 0.00 | 0.00 | 51 | 970.0 |
| 20260906082445 | 68 | 0 | 0.0 | 0.0 | 0.00 | 0.00 | 0.00 | 55 | 970.0 |
| 20260906081844 | 68 | 0 | 0.0 | 0.0 | 0.00 | 0.00 | 0.00 | 56 | 970.0 |
| 20260906081243 | 68 | 0 | 0.0 | 0.0 | 0.00 | 0.00 | 0.00 | 58 | 970.0 |
| 20260906080643 | 67 | 0 | 0.0 | 0.0 | 0.00 | 0.00 | 0.00 | 59 | 970.0 |
| 20260906080042 | 67 | 0 | 0.0 | 0.0 | 0.00 | 0.00 | 0.00 | 58 | 970.0 |
| 20260906074840 | 66 | 0 | 0.0 | 0.0 | 0.00 | 0.00 | 0.00 | 59 | 970.0 |
| 20260906074239 | 66 | 0 | 0.0 | 0.0 | 0.00 | 0.00 | 0.00 | 60 | 970.0 |
| 20260906073639 | 66 | 0 | 0.0 | 0.0 | 0.00 | 0.00 | 0.00 | 62 | 970.0 |
| 20260906073038 | 66 | 0 | 0.0 | 0.0 | 0.00 | 0.00 | 0.00 | 61 | 970.0 |
| 20260906072437 | 66 | 0 | 0.0 | 0.0 | 0.00 | 0.00 | 0.00 | 61 | 970.0 |
| 20260906071836 | 65 | 0 | 0.0 | 0.0 | 0.00 | 0.00 | 0.00 | 63 | 970.0 |
| 20260906071236 | 65 | 0 | 0.0 | 0.0 | 0.00 | 0.00 | 0.00 | 64 | 969.0 |
| 20260906070635 | 65 | 0 | 0.0 | 0.0 | 0.00 | 0.00 | 0.00 | 67 | 970.0 |
| 20260906070034 | 65 | 0 | 0.0 | 0.0 | 0.00 | 0.00 | 0.00 | 66 | 969.0 |
| 20260906065433 | 64 | 0 | 0.0 | 0.0 | 0.00 | 0.00 | 0.00 | 74 | 969.0 |
| 20260906064832 | 64 | 0 | 0.0 | 0.0 | 0.00 | 0.00 | 0.00 | 79 | 970.0 |
| 20260906064232 | 64 | 0 | 0.0 | 0.0 | 0.00 | 0.00 | 0.00 | 78 | 970.0 |
| 20260906063631 | 63 | 0 | 0.0 | 0.0 | 0.00 | 0.00 | 0.00 | 82 | 970.0 |
| 20260906063030 | 63 | 0 | 0.0 | 0.0 | 0.00 | 0.00 | 0.00 | 85 | 969.0 |
| 20260906062429 | 63 | 0 | 0.0 | 0.0 | 0.00 | 0.00 | 0.00 | 88 | 970.0 |
| 20260906061829 | 63 | 0 | 0.0 | 0.0 | 0.00 | 0.00 | 0.00 | 89 | 969.0 |
| 20260906061228 | 63 | 0 | 0.0 | 0.0 | 0.00 | 0.00 | 0.00 | 92 | 970.0 |
| 20260906060627 | 62 | 0 | 0.0 | 0.0 | 0.00 | 0.00 | 0.00 | 95 | 970.0 |
| 20260906060026 | 62 | 0 | 0.0 | 0.0 | 0.00 | 0.00 | 0.00 | 94 | 969.0 |
| 20260906055425 | 62 | 0 | 0.0 | 0.0 | 0.00 | 0.00 | 0.00 | 93 | 970.0 |
| 20260906054825 | 61 | 0 | 0.0 | 0.0 | 0.00 | 0.00 | 0.00 | 94 | 969.0 |
| 20260906054224 | 61 | 0 | 0.0 | 0.0 | 0.00 | 0.00 | 0.00 | 92 | 969.0 |
| 20260906053623 | 61 | 0 | 0.0 | 0.0 | 0.00 | 0.00 | 0.00 | 93 | 969.0 |
| 20260906053022 | 61 | 0 | 0.0 | 0.0 | 0.00 | 0.00 | 0.00 | 93 | 969.0 |
| 20260906052422 | 61 | 0 | 0.0 | 0.0 | 0.00 | 0.00 | 0.00 | 90 | 969.0 |
| 20260906051821 | 61 | 0 | 0.0 | 0.0 | 0.00 | 0.00 | 0.00 | 91 | 969.0 |
| 20260906051220 | 61 | 0 | 0.0 | 0.0 | 0.00 | 0.00 | 0.00 | 89 | 969.0 |
| 20260906050619 | 60 | 0 | 0.0 | 0.0 | 0.00 | 0.00 | 0.00 | 91 | 969.0 |
| 20260906050018 | 61 | 0 | 0.0 | 0.0 | 0.00 | 0.00 | 0.00 | 90 | 969.0 |
| 20260906045418 | 61 | 0 | 0.0 | 0.0 | 0.00 | 0.00 | 0.00 | 89 | 969.0 |
| 20260906044817 | 61 | 0 | 0.0 | 0.0 | 0.00 | 0.00 | 0.00 | 90 | 969.0 |
| 20260906044216 | 61 | 0 | 0.0 | 0.0 | 0.00 | 0.00 | 0.00 | 91 | 969.0 |
| 20260906043615 | 61 | 0 | 0.0 | 0.0 | 0.00 | 0.00 | 0.00 | 91 | 969.0 |
| 20260906043015 | 61 | 0 | 0.0 | 0.0 | 0.00 | 0.00 | 0.00 | 90 | 969.0 |
| 20260906042414 | 61 | 0 | 0.0 | 0.0 | 0.00 | 0.00 | 0.00 | 91 | 969.0 |
| 20260906041813 | 61 | 0 | 0.0 | 0.0 | 0.00 | 0.00 | 0.00 | 91 | 969.0 |
| 20260906041212 | 61 | 0 | 0.0 | 0.0 | 0.00 | 0.00 | 0.00 | 90 | 969.0 |
| 20260906040612 | 61 | 0 | 0.0 | 0.0 | 0.00 | 0.00 | 0.00 | 91 | 969.0 |
| 20260906040011 | 61 | 0 | 0.0 | 0.0 | 0.00 | 0.00 | 0.00 | 91 | 969.0 |
| 20260906035410 | 62 | 0 | 0.0 | 0.0 | 0.00 | 0.00 | 0.00 | 89 | 969.0 |
| 20260906034809 | 62 | 0 | 0.0 | 0.0 | 0.00 | 0.00 | 0.00 | 90 | 969.0 |
| 20260906034208 | 62 | 0 | 0.0 | 0.0 | 0.00 | 0.00 | 0.00 | 91 | 969.0 |
| 20260906033608 | 62 | 0 | 0.0 | 0.0 | 0.00 | 0.00 | 0.00 | 92 | 969.0 |
| 20260906033007 | 62 | 0 | 0.0 | 0.0 | 0.00 | 0.00 | 0.00 | 90 | 969.0 |
| 20260906032406 | 62 | 0 | 0.0 | 0.0 | 0.00 | 0.00 | 0.00 | 90 | 969.0 |
| 20260906031805 | 63 | 0 | 0.0 | 0.0 | 0.00 | 0.00 | 0.00 | 89 | 969.0 |
| 20260906031205 | 63 | 0 | 0.0 | 0.0 | 0.00 | 0.00 | 0.00 | 89 | 969.0 |
| 20260906030604 | 63 | 0 | 0.0 | 0.0 | 0.00 | 0.00 | 0.00 | 88 | 969.0 |
| 20260906030003 | 63 | 0 | 0.0 | 0.0 | 0.00 | 0.00 | 0.00 | 90 | 969.0 |
| 20260906025402 | 63 | 0 | 0.0 | 0.0 | 0.00 | 0.00 | 0.00 | 89 | 969.0 |
| 20260906024801 | 63 | 0 | 0.0 | 0.0 | 0.00 | 0.00 | 0.00 | 89 | 969.0 |
| 20260906024201 | 63 | 0 | 0.0 | 0.0 | 0.00 | 0.00 | 0.00 | 89 | 969.0 |
| 20260906023600 | 63 | 0 | 0.0 | 0.0 | 0.00 | 0.00 | 0.00 | 88 | 969.0 |
| 20260906022959 | 63 | 0 | 0.0 | 0.0 | 0.00 | 0.00 | 0.00 | 90 | 969.0 |
| 20260906022358 | 63 | 0 | 0.0 | 0.0 | 0.00 | 0.00 | 0.00 | 90 | 969.0 |
| 20260906021758 | 63 | 0 | 0.0 | 0.0 | 0.00 | 0.00 | 0.00 | 90 | 969.0 |
| 20260906021157 | 64 | 0 | 0.0 | 0.0 | 0.00 | 0.00 | 0.00 | 88 | 969.0 |
| 20260906020556 | 63 | 0 | 0.0 | 0.0 | 0.00 | 0.00 | 0.00 | 89 | 969.0 |
| 20260906015955 | 64 | 0 | 0.0 | 0.0 | 0.00 | 0.00 | 0.00 | 88 | 969.0 |
| 20260906015354 | 64 | 0 | 0.0 | 0.0 | 0.00 | 0.00 | 0.00 | 88 | 969.0 |
| 20260906014754 | 64 | 0 | 0.0 | 0.0 | 0.00 | 0.00 | 0.00 | 88 | 969.0 |
| 20260906014153 | 64 | 0 | 0.0 | 0.0 | 0.00 | 0.00 | 0.00 | 88 | 969.0 |
| 20260906013552 | 65 | 0 | 0.0 | 0.0 | 0.00 | 0.00 | 0.00 | 87 | 969.0 |
| 20260906012951 | 65 | 0 | 0.0 | 0.0 | 0.00 | 0.00 | 0.00 | 88 | 969.0 |
| 20260906012351 | 65 | 0 | 0.0 | 0.0 | 0.00 | 0.00 | 0.00 | 87 | 969.0 |
| 20260906011750 | 65 | 0 | 0.0 | 0.0 | 0.00 | 0.00 | 0.00 | 87 | 969.0 |
| 20260906011149 | 65 | 0 | 0.0 | 0.0 | 0.00 | 0.00 | 0.00 | 87 | 968.0 |
| 20260906010548 | 65 | 0 | 0.0 | 0.0 | 0.00 | 0.00 | 0.00 | 87 | 969.0 |
| 20260906005947 | 65 | 0 | 0.0 | 0.0 | 0.00 | 0.00 | 0.00 | 87 | 969.0 |
| 20260906005347 | 65 | 0 | 0.0 | 0.0 | 0.00 | 0.00 | 0.00 | 87 | 969.0 |
| 20260906004746 | 66 | 0 | 0.0 | 0.0 | 0.00 | 0.00 | 0.00 | 87 | 969.0 |
| 20260906004145 | 66 | 0 | 0.0 | 0.0 | 0.00 | 0.00 | 0.00 | 86 | 969.0 |
| 20260906003544 | 66 | 0 | 0.0 | 0.0 | 0.00 | 0.00 | 0.00 | 88 | 969.0 |
| 20260906002944 | 66 | 0 | 0.0 | 0.0 | 0.00 | 0.00 | 0.00 | 89 | 968.0 |
| 20260906002343 | 66 | 0 | 0.0 | 0.0 | 0.00 | 0.00 | 0.00 | 88 | 968.0 |
| 20260906001742 | 66 | 0 | 0.0 | 0.0 | 0.00 | 0.00 | 0.00 | 88 | 968.0 |
| 20260906001141 | 66 | 0 | 0.0 | 0.0 | 0.00 | 0.00 | 0.00 | 87 | 968.0 |
| 20260906000540 | 66 | 0 | 0.0 | 0.0 | 0.00 | 0.00 | 0.00 | 86 | 968.0 |
| 20260905235940 | 67 | 0 | 0.0 | 0.0 | 0.00 | 0.00 | 0.00 | 86 | 968.0 |
| 20260905235339 | 67 | 0 | 0.0 | 0.0 | 0.00 | 0.00 | 0.00 | 86 | 968.0 |
| 20260905234738 | 67 | 0 | 0.0 | 0.0 | 0.00 | 0.00 | 0.00 | 85 | 968.0 |
| 20260905234137 | 67 | 0 | 0.0 | 0.0 | 0.00 | 0.00 | 0.00 | 84 | 968.0 |
| 20260905233537 | 67 | 0 | 0.0 | 0.0 | 0.00 | 0.00 | 0.00 | 83 | 969.0 |
| 20260905232936 | 68 | 0 | 0.0 | 0.0 | 0.00 | 0.00 | 0.00 | 83 | 968.0 |
| 20260905232335 | 68 | 0 | 0.0 | 0.0 | 0.00 | 0.00 | 0.00 | 83 | 968.0 |
| 20260905231734 | 68 | 0 | 0.0 | 0.0 | 0.00 | 0.00 | 0.00 | 83 | 968.0 |
| 20260905231133 | 68 | 0 | 0.0 | 0.0 | 0.00 | 0.00 | 0.00 | 84 | 968.0 |
| 20260905230533 | 67 | 0 | 0.0 | 0.0 | 0.00 | 0.00 | 0.00 | 86 | 968.0 |
| 20260905225932 | 67 | 0 | 0.0 | 0.0 | 0.00 | 0.00 | 0.00 | 87 | 968.0 |
| 20260905225331 | 67 | 0 | 0.0 | 0.0 | 0.00 | 0.00 | 0.00 | 88 | 968.0 |
| 20260905224731 | 67 | 0 | 0.0 | 0.0 | 0.00 | 0.00 | 0.00 | 86 | 968.0 |
| 20260905224129 | 67 | 0 | 0.0 | 0.0 | 0.00 | 0.00 | 0.00 | 85 | 968.0 |
| 20260905223529 | 66 | 0 | 0.0 | 0.0 | 0.00 | 0.00 | 0.00 | 86 | 968.0 |
| 20260905222928 | 68 | 0 | 0.0 | 0.0 | 0.00 | 0.00 | 0.00 | 82 | 968.0 |
| 20260905222327 | 68 | 0 | 0.0 | 0.0 | 0.00 | 0.00 | 0.00 | 82 | 968.0 |
| 20260905221726 | 68 | 0 | 0.0 | 0.0 | 0.00 | 0.00 | 0.00 | 81 | 968.0 |
| 20260905221126 | 68 | 0 | 0.0 | 0.0 | 0.00 | 0.00 | 0.00 | 81 | 968.0 |
| 20260905220525 | 68 | 0 | 0.0 | 0.0 | 0.00 | 0.00 | 0.00 | 81 | 968.0 |
| 20260905215924 | 68 | 0 | 0.0 | 0.0 | 0.00 | 0.00 | 0.00 | 81 | 968.0 |
| 20260905215323 | 68 | 0 | 0.0 | 0.0 | 0.00 | 0.00 | 0.00 | 79 | 968.0 |
| 20260905214722 | 68 | 0 | 0.0 | 0.0 | 0.00 | 0.00 | 0.00 | 76 | 968.0 |
| 20260905214122 | 70 | 0 | 0.0 | 0.0 | 0.00 | 0.00 | 0.00 | 73 | 968.0 |
| 20260905213521 | 70 | 0 | 0.0 | 0.0 | 0.00 | 0.00 | 0.00 | 73 | 968.0 |
| 20260905212920 | 69 | 0 | 0.0 | 0.0 | 0.00 | 0.00 | 0.00 | 74 | 968.0 |
| 20260905211719 | 70 | 0 | 0.0 | 0.0 | 0.00 | 0.00 | 0.00 | 71 | 967.0 |
| 20260905211118 | 71 | 0 | 0.0 | 0.0 | 0.00 | 0.00 | 0.00 | 70 | 967.0 |
| 20260905210517 | 71 | 0 | 0.0 | 0.0 | 0.00 | 0.00 | 0.00 | 70 | 967.0 |
| 20260905205916 | 71 | 0 | 0.0 | 0.0 | 0.00 | 0.00 | 0.00 | 68 | 968.0 |
| 20260905205315 | 71 | 0 | 0.0 | 0.0 | 0.00 | 0.00 | 0.00 | 69 | 967.0 |
| 20260905204715 | 71 | 0 | 0.0 | 0.0 | 0.00 | 0.00 | 0.00 | 67 | 967.0 |
| 20260905204114 | 71 | 0 | 0.0 | 0.0 | 0.00 | 0.00 | 0.00 | 67 | 967.0 |
| 20260905203513 | 72 | 0 | 0.0 | 0.0 | 0.00 | 0.00 | 0.00 | 66 | 967.0 |
| 20260905202912 | 72 | 0 | 0.0 | 0.0 | 0.00 | 0.00 | 0.00 | 65 | 967.0 |
| 20260905202311 | 72 | 0 | 0.0 | 0.0 | 0.00 | 0.00 | 0.00 | 64 | 967.0 |
| 20260905201711 | 72 | 0 | 0.0 | 0.0 | 0.00 | 0.00 | 0.00 | 64 | 967.0 |
| 20260905201110 | 72 | 0 | 0.0 | 0.0 | 0.00 | 0.00 | 0.00 | 64 | 967.0 |
| 20260905200509 | 73 | 0 | 0.0 | 0.0 | 0.00 | 0.00 | 0.00 | 62 | 967.0 |
| 20260905195908 | 73 | 0 | 0.0 | 0.0 | 0.00 | 0.00 | 0.00 | 61 | 967.0 |
| 20260905195308 | 73 | 0 | 0.0 | 0.0 | 0.00 | 0.00 | 0.00 | 60 | 967.0 |
| 20260905194707 | 73 | 0 | 0.0 | 0.0 | 0.00 | 0.00 | 0.00 | 61 | 967.0 |
| 20260905194106 | 74 | 0 | 0.0 | 0.0 | 0.00 | 0.00 | 0.00 | 60 | 967.0 |
| 20260905193505 | 74 | 0 | 0.0 | 0.0 | 0.00 | 0.00 | 0.00 | 59 | 967.0 |
| 20260905192904 | 73 | 0 | 0.0 | 0.0 | 0.00 | 0.00 | 0.00 | 59 | 967.0 |
| 20260905192306 | 74 | 0 | 0.0 | 0.0 | 0.00 | 0.00 | 0.00 | 59 | 967.0 |
| 20260905191703 | 74 | 0 | 0.0 | 0.0 | 0.00 | 0.00 | 0.00 | 58 | 967.0 |
| 20260905191102 | 74 | 0 | 0.0 | 0.0 | 0.00 | 0.00 | 0.00 | 58 | 967.0 |
| 20260905190501 | 73 | 0 | 0.0 | 0.0 | 0.00 | 0.00 | 0.00 | 60 | 967.0 |
| 20260905185900 | 75 | 0 | 0.0 | 0.0 | 0.00 | 0.00 | 0.00 | 58 | 967.0 |
| 20260905185300 | 75 | 0 | 0.0 | 0.0 | 0.00 | 0.00 | 0.00 | 61 | 967.0 |
| 20260905184659 | 75 | 0 | 0.0 | 0.0 | 0.00 | 0.00 | 0.00 | 64 | 966.0 |
| 20260905184058 | 75 | 0 | 0.0 | 0.0 | 0.00 | 0.00 | 0.00 | 64 | 966.0 |
| 20260905183457 | 74 | 0 | 0.0 | 0.0 | 0.00 | 0.00 | 0.00 | 65 | 966.0 |
| 20260905182857 | 74 | 0 | 0.0 | 0.0 | 0.00 | 0.00 | 0.00 | 66 | 966.0 |
| 20260905182256 | 74 | 0 | 0.0 | 0.0 | 0.00 | 0.00 | 0.00 | 65 | 966.0 |
| 20260905181655 | 75 | 0 | 0.0 | 0.0 | 0.00 | 0.00 | 0.00 | 63 | 966.0 |
| 20260905181054 | 75 | 0 | 0.0 | 0.0 | 0.00 | 0.00 | 0.00 | 61 | 966.0 |
| 20260905180453 | 76 | 0 | 0.0 | 0.0 | 0.00 | 0.00 | 0.00 | 54 | 965.0 |
| 20260905175853 | 75 | 0 | 0.0 | 0.0 | 0.00 | 0.00 | 0.00 | 53 | 965.0 |
| 20260905175252 | 76 | 0 | 0.0 | 0.0 | 0.00 | 0.00 | 0.00 | 50 | 965.0 |
| 20260905174651 | 75 | 0 | 0.0 | 0.0 | 0.00 | 0.00 | 0.00 | 48 | 965.0 |
| 20260905174050 | 76 | 0 | 0.0 | 0.0 | 0.00 | 0.00 | 0.00 | 46 | 965.0 |
| 20260905173449 | 77 | 0 | 0.0 | 0.0 | 0.00 | 0.00 | 0.00 | 44 | 965.0 |
| 20260905172849 | 77 | 0 | 0.0 | 0.0 | 0.00 | 0.00 | 0.00 | 44 | 965.0 |
| 20260905172248 | 76 | 0 | 0.0 | 0.0 | 0.00 | 0.00 | 0.00 | 44 | 965.0 |
| 20260905171647 | 77 | 0 | 0.0 | 0.0 | 0.00 | 0.00 | 0.00 | 43 | 965.0 |
| 20260905171046 | 77 | 0 | 0.0 | 0.0 | 0.00 | 0.00 | 0.00 | 43 | 965.0 |
| 20260905170445 | 78 | 0 | 0.0 | 0.0 | 0.00 | 0.00 | 0.00 | 42 | 965.0 |
| 20260905165845 | 77 | 0 | 0.0 | 0.0 | 0.00 | 0.00 | 0.00 | 42 | 965.0 |
| 20260905165244 | 77 | 0 | 0.0 | 0.0 | 0.00 | 0.00 | 0.00 | 42 | 965.0 |
| 20260905164643 | 77 | 0 | 0.0 | 0.0 | 0.00 | 0.00 | 0.00 | 43 | 965.0 |
| 20260905164042 | 77 | 0 | 0.0 | 0.0 | 0.00 | 0.00 | 0.00 | 43 | 965.0 |
| 20260905163442 | 77 | 0 | 0.0 | 0.0 | 0.00 | 0.00 | 0.00 | 43 | 965.0 |
| 20260905162841 | 78 | 0 | 0.0 | 0.0 | 0.00 | 0.00 | 0.00 | 43 | 965.0 |
| 20260905162240 | 78 | 0 | 0.0 | 0.0 | 0.00 | 0.00 | 0.00 | 42 | 965.0 |